Location: Unspecified
(0.0000°N, 0.0000°E)
Time: 22:18:29
(UTC+00:00)

Hubble Space Telescope - Pass Details

Date: 21 September 2017
Orbit: 537 x 541 km, 28.5° (Epoch: 22 November)

Event Time Altitude Azimuth Distance (km) Brightness Sun altitude
Rises 19:20:45 0° 271° (W) 2,670 5.9 -22.0°
Reaches altitude 10° 19:23:37 10° 251° (WSW) 1,782 4.4 -22.7°
Maximum altitude 19:26:23 17° 208° (SSW) 1,381 3.1 -23.4°
Enters shadow 19:27:52 15° 182° (S) 1,508 3.0 -23.7°
